TimeEST,TemperatureF,Dew PointF,Humidity,Sea Level PressureIn,VisibilityMPH,Wind Direction,Wind SpeedMPH,Gust SpeedMPH,PrecipitationIn,Events,Conditions,WindDirDegrees,DateUTC
12:10 AM,26.8,24.4,91,30.13,10.0,Calm,Calm,-,N/A,,Overcast,0,2012-11-06 05:10:00
12:30 AM,27.3,24.8,90,30.13,10.0,Calm,Calm,-,N/A,,Overcast,0,2012-11-06 05:30:00
12:50 AM,27.3,25.3,92,30.13,10.0,Calm,Calm,-,N/A,,Overcast,0,2012-11-06 05:50:00
1:10 AM,29.8,27.3,90,30.13,10.0,Calm,Calm,-,N/A,,Overcast,0,2012-11-06 06:10:00
1:30 AM,29.8,27.1,90,30.13,10.0,Calm,Calm,-,N/A,,Overcast,0,2012-11-06 06:30:00
1:50 AM,29.8,26.4,87,30.12,10.0,Calm,Calm,-,N/A,,Overcast,0,2012-11-06 06:50:00
2:10 AM,29.8,26.2,86,30.11,10.0,Calm,Calm,-,N/A,,Overcast,0,2012-11-06 07:10:00
2:30 AM,29.8,24.8,81,30.11,10.0,Calm,Calm,-,N/A,,Overcast,0,2012-11-06 07:30:00
2:50 AM,29.8,24.4,80,30.11,10.0,Calm,Calm,-,N/A,,Overcast,0,2012-11-06 07:50:00
3:10 AM,29.8,23.9,79,30.10,10.0,Calm,Calm,-,N/A,,Overcast,0,2012-11-06 08:10:00
3:31 AM,29.8,24.1,79,30.09,10.0,Calm,Calm,-,N/A,,Overcast,0,2012-11-06 08:31:00
3:51 AM,29.8,23.9,79,30.09,10.0,Calm,Calm,-,N/A,,Overcast,0,2012-11-06 08:51:00
4:11 AM,29.8,24.4,80,30.08,10.0,Calm,Calm,-,N/A,,Overcast,0,2012-11-06 09:11:00
4:31 AM,29.8,25.2,83,30.08,10.0,Calm,Calm,-,N/A,,Overcast,0,2012-11-06 09:31:00
4:51 AM,29.8,25.2,83,30.08,10.0,Calm,Calm,-,N/A,,Overcast,0,2012-11-06 09:51:00
5:11 AM,29.8,25.5,84,30.08,10.0,Calm,Calm,-,N/A,,Overcast,0,2012-11-06 10:11:00
5:31 AM,29.8,26.4,87,30.07,10.0,Calm,Calm,-,N/A,,Overcast,0,2012-11-06 10:31:00
5:51 AM,30.4,26.8,86,30.07,10.0,Calm,Calm,-,N/A,,Overcast,0,2012-11-06 10:51:00
6:11 AM,29.8,26.4,87,30.07,10.0,Calm,Calm,-,N/A,,Overcast,0,2012-11-06 11:11:00
6:52 AM,30.4,26.4,85,30.05,10.0,Calm,Calm,-,N/A,,Overcast,0,2012-11-06 11:52:00
7:12 AM,30.9,26.2,83,30.05,10.0,Calm,Calm,-,N/A,,Overcast,0,2012-11-06 12:12:00
7:32 AM,30.2,27.3,89,30.05,10.0,Calm,Calm,-,N/A,,Overcast,0,2012-11-06 12:32:00
7:52 AM,30.6,27.0,86,30.05,10.0,Calm,Calm,-,N/A,,Overcast,0,2012-11-06 12:52:00
8:12 AM,31.8,27.0,82,30.06,10.0,Calm,Calm,-,N/A,,Overcast,0,2012-11-06 13:12:00
8:32 AM,32.0,26.8,81,30.06,10.0,Calm,Calm,-,N/A,,Overcast,0,2012-11-06 13:32:00
8:52 AM,32.0,26.6,80,30.07,10.0,Calm,Calm,-,N/A,,Overcast,0,2012-11-06 13:52:00
9:12 AM,32.2,26.4,79,30.06,10.0,Calm,Calm,-,N/A,,Overcast,0,2012-11-06 14:12:00
9:32 AM,34.7,28.4,78,30.05,10.0,Calm,Calm,-,N/A,,Overcast,0,2012-11-06 14:32:00
9:53 AM,34.7,27.7,76,30.05,10.0,Calm,Calm,-,N/A,,Overcast,0,2012-11-06 14:53:00
10:13 AM,34.7,27.3,74,30.04,10.0,Calm,Calm,-,N/A,,Overcast,0,2012-11-06 15:13:00
10:33 AM,34.7,27.1,74,30.04,10.0,ESE,3.5,-,N/A,,Overcast,110,2012-11-06 15:33:00
10:53 AM,35.6,27.1,71,30.04,10.0,SE,6.9,-,N/A,,Overcast,130,2012-11-06 15:53:00
11:13 AM,36.9,27.7,69,30.04,10.0,SE,4.6,-,N/A,,Overcast,130,2012-11-06 16:13:00
11:33 AM,37.0,26.8,66,30.03,10.0,SE,6.9,-,N/A,,Overcast,140,2012-11-06 16:33:00
11:53 AM,38.1,27.3,65,30.01,10.0,SE,6.9,-,N/A,,Overcast,130,2012-11-06 16:53:00
12:13 PM,39.6,27.0,61,30.01,10.0,South,10.4,-,N/A,,Overcast,170,2012-11-06 17:13:00
12:34 PM,39.6,26.6,60,30.00,10.0,South,6.9,-,N/A,,Overcast,170,2012-11-06 17:34:00
12:54 PM,39.6,26.6,60,29.99,10.0,South,6.9,-,N/A,,Overcast,170,2012-11-06 17:54:00
1:14 PM,39.6,26.4,59,29.99,10.0,SE,9.2,-,N/A,,Overcast,140,2012-11-06 18:14:00
1:34 PM,39.6,26.4,59,29.98,10.0,SSE,10.4,-,N/A,,Overcast,160,2012-11-06 18:34:00
1:54 PM,39.6,27.0,61,29.98,10.0,South,6.9,-,N/A,,Overcast,170,2012-11-06 18:54:00
2:14 PM,38.8,27.0,62,29.98,10.0,South,6.9,-,N/A,,Overcast,170,2012-11-06 19:14:00
2:34 PM,39.6,27.9,63,29.97,10.0,SSE,8.1,-,N/A,,Overcast,150,2012-11-06 19:34:00
2:54 PM,39.6,27.9,63,29.97,10.0,SSE,6.9,-,N/A,,Overcast,150,2012-11-06 19:54:00
3:14 PM,37.9,26.8,64,29.97,10.0,SSE,6.9,-,N/A,,Overcast,150,2012-11-06 20:14:00
3:35 PM,37.8,26.4,64,29.97,10.0,SSE,6.9,-,N/A,,Overcast,150,2012-11-06 20:35:00
3:55 PM,38.3,26.8,63,29.97,10.0,SE,6.9,-,N/A,,Overcast,140,2012-11-06 20:55:00
4:10 PM,38.5,26.6,62,29.97,10.0,SSE,5.8,-,N/A,,Overcast,150,2012-11-06 21:10:00
4:30 PM,38.7,27.0,63,29.97,10.0,SE,6.9,-,N/A,,Overcast,130,2012-11-06 21:30:00
5:10 PM,37.8,26.4,64,29.97,10.0,SE,5.8,9.2,N/A,,Overcast,140,2012-11-06 22:10:00
5:30 PM,37.4,26.6,65,29.97,10.0,SE,5.8,-,N/A,,Overcast,140,2012-11-06 22:30:00
5:50 PM,37.0,27.0,67,29.98,10.0,SE,5.8,-,N/A,,Overcast,140,2012-11-06 22:50:00
6:10 PM,37.0,27.0,67,29.98,10.0,SE,4.6,-,N/A,,Overcast,140,2012-11-06 23:10:00
6:30 PM,37.0,26.6,66,29.98,10.0,SE,9.2,-,N/A,,Overcast,130,2012-11-06 23:30:00
6:51 PM,37.0,27.0,67,29.98,10.0,SE,3.5,-,N/A,,Overcast,140,2012-11-06 23:51:00
7:11 PM,37.0,26.8,66,29.99,10.0,SE,4.6,-,N/A,,Overcast,130,2012-11-07 00:11:00
7:31 PM,37.0,27.1,67,29.99,10.0,ESE,3.5,-,N/A,,Overcast,120,2012-11-07 00:31:00
7:51 PM,37.0,27.3,68,29.99,10.0,ESE,4.6,-,N/A,,Overcast,120,2012-11-07 00:51:00
8:11 PM,37.0,27.5,68,29.98,10.0,ESE,6.9,-,N/A,,Overcast,120,2012-11-07 01:11:00
8:31 PM,37.0,27.5,68,29.99,10.0,ESE,8.1,-,N/A,,Overcast,120,2012-11-07 01:31:00
8:51 PM,37.0,27.5,68,29.99,10.0,ESE,5.8,-,N/A,,Overcast,110,2012-11-07 01:51:00
9:11 PM,37.0,27.5,68,29.99,10.0,ESE,3.5,-,N/A,,Overcast,120,2012-11-07 02:11:00
9:31 PM,37.0,28.0,70,30.00,10.0,ESE,4.6,-,N/A,,Overcast,120,2012-11-07 02:31:00
9:52 PM,37.0,28.0,70,30.00,10.0,ESE,4.6,-,N/A,,Overcast,110,2012-11-07 02:52:00
10:12 PM,35.8,27.0,70,30.00,10.0,East,5.8,-,N/A,,Overcast,100,2012-11-07 03:12:00
10:32 PM,36.9,28.0,70,30.00,10.0,East,4.6,-,N/A,,Overcast,100,2012-11-07 03:32:00
10:52 PM,37.0,28.4,71,30.00,10.0,Calm,Calm,-,N/A,,Overcast,0,2012-11-07 03:52:00
11:12 PM,37.0,28.4,71,30.00,10.0,SE,4.6,-,N/A,,Overcast,140,2012-11-07 04:12:00
11:32 PM,37.0,29.1,73,30.00,10.0,SE,5.8,-,N/A,,Overcast,140,2012-11-07 04:32:00
11:52 PM,37.0,29.8,75,30.00,10.0,SE,4.6,-,N/A,,Overcast,130,2012-11-07 04:52:00